Weather History for KGTB - July, 2013

Change the Weather History Date:

Monday, July 1, 2013

  Actual Average Record
Temperature  
Mean Temperature 66 °F -  
Max Temperature 72 °F 74 °F 90 °F (2014)
Min Temperature 59 °F 56 °F 47 °F (2007)
Growing Degree Days 16 (Base 50)    
Moisture  
Dew Point 63 °F    
Average Humidity 96    
Maximum Humidity 100    
Minimum Humidity 76    
Precipitation  
Precipitation 0.68 in - - ()
Sea Level Pressure  
Sea Level Pressure 30.02 in    
Wind  
Wind Speed 10 mph (NE)    
Max Wind Speed 18 mph    
Max Gust Speed 23 mph    
Visibility 8 miles    
Events Fog , Rain    
Averages and records for this station are not official NWS values.
T = Trace of Precipitation, MM = Missing Value Source: NWS Daily Summary

Daily Weather History Graph

Daily Weather History Graph

Search for Another Location

Airport or City:

Trip Planner

Search our weather history database for the weather conditions in past years. The results will help you decide how hot, cold, wet, or windy it might be!

Date:

Astronomy

Jul. 01, 2013 Rise Set
Actual Time 5:23 AM EDT 8:49 PM EDT
Civil Twilight 4:47 AM EDT 9:25 PM EDT
Nautical Twilight 4:00 AM EDT 10:12 PM EDT
Astronomical Twilight 3:00 AM EDT 11:12 PM EDT
Moon 1:00 AM EDT (7/1) 2:55 PM EDT (7/1)
Length of Visible Light 16h 38m
Length of Day
15h 25m
Waning Crescent, 35% of the Moon is Illuminated
Jul 1
Waning Crescent
Jul 8
New
Jul 15
First Quarter
Jul 22
Full
Jul 29
Last Quarter

Hourly Weather History & Observations

Time (EDT) Temp. Dew Point Humidity Pressure Visibility Wind Dir Wind Speed Gust Speed Precip Events Conditions
12:58 AM 63.5 °F 61.3 °F 93% 29.95 in 10.0 mi North 4.6 mph - N/A   Partly Cloudy
1:58 AM 62.4 °F 61.5 °F 97% 29.95 in 10.0 mi NNE 3.5 mph - N/A   Overcast
2:58 AM 61.7 °F 61.7 °F 100% 29.95 in 10.0 mi NNE 5.8 mph - N/A   Mostly Cloudy
3:58 AM 61.2 °F 61.2 °F 100% 29.95 in 10.0 mi NE 5.8 mph - N/A   Scattered Clouds
4:58 AM 61.2 °F 61.2 °F 100% 29.96 in 10.0 mi NE 6.9 mph - N/A   Scattered Clouds
5:58 AM 60.6 °F 60.6 °F 100% 29.99 in 10.0 mi NE 6.9 mph - N/A   Mostly Cloudy
6:58 AM 61.5 °F 61.5 °F 100% 30.00 in 10.0 mi NE 8.1 mph - N/A   Partly Cloudy
7:58 AM 63.1 °F 61.7 °F 95% 30.00 in 10.0 mi NNE 8.1 mph - N/A   Scattered Clouds
8:58 AM 64.8 °F 61.7 °F 90% 30.00 in 10.0 mi NE 8.1 mph - N/A   Mostly Cloudy
9:58 AM 67.1 °F 62.1 °F 84% 30.01 in 10.0 mi NE 8.1 mph - N/A   Partly Cloudy
10:58 AM 69.1 °F 62.6 °F 80% 30.01 in 10.0 mi NNE 11.5 mph - N/A   Scattered Clouds
11:23 AM 69.8 °F 62.6 °F 78% 30.01 in 10.0 mi NNE 11.5 mph - N/A   Mostly Cloudy
11:58 AM 72.0 °F 64.0 °F 76% 30.01 in 10.0 mi NE 12.7 mph - N/A   Overcast
12:58 PM 69.8 °F 64.4 °F 83% 30.01 in 10.0 mi NNE 11.5 mph - N/A   Overcast
1:32 PM 69.8 °F 64.4 °F 83% 30.00 in 7.0 mi NNE 15.0 mph - N/A   Light Drizzle
1:53 PM 69.8 °F 64.4 °F 83% 30.01 in 10.0 mi NNE 13.8 mph - N/A   Mostly Cloudy
1:58 PM 69.3 °F 63.9 °F 83% 30.01 in 10.0 mi NNE 15.0 mph 19.6 mph 0.00 in   Scattered Clouds
2:12 PM 69.8 °F 64.4 °F 83% 30.01 in 10.0 mi NNE 11.5 mph - N/A   Light Drizzle
2:27 PM 68.0 °F 64.4 °F 88% 30.01 in 2.5 mi NE 15.0 mph - N/A Rain Light Rain
2:32 PM 68.0 °F 66.2 °F 94% 30.01 in 0.8 mi NNE 15.0 mph - N/A Rain Light Rain
2:37 PM 68.0 °F 66.2 °F 94% 30.02 in 0.5 mi NNE 12.7 mph - N/A Fog , Rain Heavy Rain
2:42 PM 66.2 °F 66.2 °F 100% 30.02 in 1.0 mi NNE 10.4 mph - N/A Rain Heavy Rain
2:47 PM 66.2 °F 66.2 °F 100% 30.02 in 1.8 mi NNE 11.5 mph - N/A Rain Heavy Rain
2:52 PM 66.2 °F 66.2 °F 100% 30.02 in 2.0 mi NNE 9.2 mph - N/A Rain Heavy Rain
2:58 PM 66.2 °F 66.2 °F 100% 30.02 in 2.5 mi NNE 6.9 mph - 0.20 in Rain Rain
3:08 PM 66.2 °F 66.2 °F 100% 30.02 in 1.8 mi NNE 9.2 mph - N/A Rain Heavy Rain
3:13 PM 66.2 °F 66.2 °F 100% 30.02 in 2.0 mi NNE 10.4 mph - N/A Rain Heavy Rain
3:18 PM 66.2 °F 66.2 °F 100% 30.02 in 3.0 mi NE 9.2 mph - N/A Rain Rain
3:28 PM 66.2 °F 66.2 °F 100% 30.02 in 6.0 mi NE 10.4 mph - N/A Rain Light Rain
3:48 PM 66.2 °F 66.2 °F 100% 30.02 in 7.0 mi NNE 10.4 mph - N/A Rain Light Rain
3:58 PM 66.6 °F 66.6 °F 100% 30.01 in 6.0 mi NE 10.4 mph - 0.23 in Rain Rain
4:38 PM 66.2 °F 66.2 °F 100% 30.01 in 9.0 mi NE 15.0 mph - N/A Rain Light Rain
4:43 PM 66.2 °F 66.2 °F 100% 30.01 in 8.0 mi NE 12.7 mph - N/A Rain Light Rain
4:48 PM 66.2 °F 66.2 °F 100% 30.01 in 9.0 mi NE 12.7 mph - N/A Rain Light Rain
4:58 PM 66.4 °F 66.4 °F 100% 30.01 in 10.0 mi NE 16.1 mph - 0.04 in Rain Light Rain
5:03 PM 66.2 °F 66.2 °F 100% 30.00 in 10.0 mi NE 18.4 mph 23.0 mph N/A Rain Light Rain
5:19 PM 66.2 °F 66.2 °F 100% 30.01 in 10.0 mi NE 16.1 mph - N/A   Scattered Clouds
5:21 PM 66.2 °F 66.2 °F 100% 30.01 in 10.0 mi NE 13.8 mph - N/A   Light Drizzle
5:22 PM 66.2 °F 66.2 °F 100% 30.01 in 10.0 mi NE 13.8 mph - N/A   Scattered Clouds
5:23 PM 66.2 °F 66.2 °F 100% 30.01 in 10.0 mi NE 13.8 mph - N/A   Light Drizzle
5:35 PM 66.2 °F 66.2 °F 100% 30.01 in 10.0 mi NE 15.0 mph - N/A   Scattered Clouds
5:44 PM 66.2 °F 66.2 °F 100% 30.00 in 10.0 mi NE 13.8 mph - N/A   Light Drizzle
5:58 PM 66.0 °F 66.0 °F 100% 30.01 in 10.0 mi NE 13.8 mph - 0.01 in Rain Light Rain
6:29 PM 66.2 °F 66.2 °F 100% 30.01 in 10.0 mi NE 12.7 mph - N/A   Partly Cloudy
6:58 PM 66.0 °F 64.9 °F 96% 30.01 in 10.0 mi NE 11.5 mph - 0.00 in   Partly Cloudy
7:57 PM 66.2 °F 60.8 °F 83% 30.02 in 10.0 mi NE 13.8 mph - N/A   Light Drizzle
7:58 PM 66.2 °F 60.8 °F 83% 30.02 in 10.0 mi NE 15.0 mph - N/A   Light Drizzle
8:47 PM 62.6 °F 60.8 °F 94% 30.03 in 10.0 mi NE 11.5 mph - N/A   Overcast
8:58 PM 62.8 °F 61.7 °F 96% 30.04 in 10.0 mi NE 12.7 mph - 0.01 in   Overcast
8:59 PM 62.6 °F 60.8 °F 94% 30.04 in 10.0 mi NE 11.5 mph - N/A   Light Drizzle
9:09 PM 62.6 °F 60.8 °F 94% 30.04 in 10.0 mi NE 15.0 mph - N/A   Overcast
9:11 PM 62.6 °F 60.8 °F 94% 30.04 in 10.0 mi NE 15.0 mph - N/A   Light Drizzle
9:21 PM 62.6 °F 60.8 °F 94% 30.04 in 9.0 mi NE 15.0 mph - N/A   Light Drizzle
9:26 PM 62.6 °F 60.8 °F 94% 30.04 in 7.0 mi NE 13.8 mph - N/A   Drizzle
9:31 PM 62.6 °F 60.8 °F 94% 30.05 in 5.0 mi NE 12.7 mph - N/A Rain Light Rain
9:36 PM 62.6 °F 60.8 °F 94% 30.05 in 5.0 mi NE 13.8 mph - N/A Rain Rain
9:46 PM 60.8 °F 60.8 °F 100% 30.05 in 2.5 mi NE 15.0 mph - N/A Rain Heavy Rain
9:56 PM 60.8 °F 60.8 °F 100% 30.05 in 3.0 mi NE 13.8 mph - N/A Rain Rain
9:58 PM 61.2 °F 61.0 °F 99% 30.05 in 3.0 mi NE 12.7 mph - 0.12 in Rain Rain
10:08 PM 60.8 °F 60.8 °F 100% 30.05 in 5.0 mi NE 13.8 mph - N/A Rain Light Rain
10:23 PM 60.8 °F 60.8 °F 100% 30.05 in 4.0 mi NE 13.8 mph - N/A Rain Light Rain
10:33 PM 60.8 °F 60.8 °F 100% 30.05 in 7.0 mi NE 12.7 mph - N/A   Light Drizzle
10:43 PM 60.8 °F 60.8 °F 100% 30.05 in 10.0 mi NE 13.8 mph - N/A   Light Drizzle
10:58 PM 60.3 °F 60.3 °F 100% 30.05 in 9.0 mi NE 12.7 mph - 0.04 in   Light Drizzle
11:03 PM 60.8 °F 60.8 °F 100% 30.05 in 7.0 mi NE 12.7 mph - N/A   Light Drizzle
11:13 PM 60.8 °F 60.8 °F 100% 30.05 in 5.0 mi NE 12.7 mph - N/A Rain Light Rain
11:28 PM 59.0 °F 59.0 °F 100% 30.05 in 6.0 mi NE 15.0 mph - N/A Rain Light Rain
11:43 PM 59.0 °F 59.0 °F 100% 30.04 in 10.0 mi NE 10.4 mph - N/A Rain Light Rain
11:51 PM 59.0 °F 59.0 °F 100% 30.05 in 10.0 mi NE 13.8 mph - N/A   Overcast
11:55 PM 59.0 °F 59.0 °F 100% 30.05 in 10.0 mi ENE 12.7 mph - N/A   Light Drizzle
11:58 PM 59.5 °F 59.5 °F 100% 30.05 in 10.0 mi NE 12.7 mph - 0.03 in   Light Drizzle